Regional Weather Roundup
Issued by NWS Goodland, KS

Home | Current Version | Previous Version | Text Only | Print | Product List | Glossary Off
Versions: 1 2 3 4 5 6 7 8 9 10 11 12 13 14 15 16 17 18 19 20 21 22 23 24 25 26 27 28 29 30 31 32 33 34 35 36 37 38 39 40 41 42 43 44 45 46 47 48 49 50

000
ASUS43 KGLD 261959
RWRGLD

GOODLAND FORECAST AREA HOURLY WEATHER ROUNDUP
NATIONAL WEATHER SERVICE GOODLAND KS
200 PM MDT TUE JUL 26 2016

...OFFICIAL OBSERVATIONS...

CITY           SKY/WX    TMP DP  RH WIND       PRES   REMARKS
GOODLAND KS    SUNNY     88  67  49 S13G24    30.06F
HILL CITY KS   SUNNY     88  66  48 S10G22    30.03F
IMPERIAL NEB   SUNNY     91  60  35 S15G22    30.02F
MCCOOK NEB     SUNNY     90  65  43 S15G22    30.02F
AKRON CO       SUNNY     93  53  25 SE3       30.08F
BURLINGTON CO  SUNNY     89  62  40 S17       30.09F
LIMON CO       NOT AVBL
$$

...UNOFFICIAL OBSERVATIONS...

CITY           SKY/WX    TMP DP  RH WIND       PRES   REMARKS
COLBY KS       MOSUNNY   90  72  55 S17       30.07F
LENORA KS        N/A     87  32  14 MISG        N/A
NORTON KS      SUNNY     88  55  33 SE13G22   30.03F
SHARON SPRINGS   N/A     87  69  55 SE12G18     N/A
KIT CARSON CO    N/A     89  62  40 MISG        N/A
YUMA CO          N/A     90  62  39 CALM        N/A
$$




USA.gov is the U.S. government's official web portal to all federal, state and local government web resources and services.